Location: Unspecified
(43.3830°N, 0.0000°E)
Time: 02:52:52
(UTC+00:00)

Explorer 7 - Pass Details

Date: 01 July 2019
Orbit: 485 x 680 km, 50.3° (Epoch: 19 July)

Event Time Altitude Azimuth Distance (km) Brightness Sun altitude
Rises 07:44:31 0° 279° (W) 2,704 9.8 33.6°
Reaches altitude 10° 07:46:52 10° 289° (WNW) 1,845 9.1 34.1°
Maximum altitude 07:50:43 33° 355° (N) 985 8.4 34.8°
Drops below altitude 10° 07:54:48 10° 60° (ENE) 1,962 10.6 35.5°
Sets 07:57:21 0° 70° (ENE) 2,903 11.4 36.0°
